sat.trackr.live / text

‹ back to catalog

STARLINK-35055

NORAD 65524 · 2025-200E

PAYLOAD ACTIVE UNKNOWN

§ Identity

Operator
Country
US
Launch date
2025-09-06
Launch site
AFWTR
Launch vehicle
Mass (kg)
RCS (m²)

Purposes: comms

External: N2YO · Heavens-Above · Gunter

§ Orbital elements

Epoch: 2026-09-18T22:12:50.245056Z

Period
93.91 min
Inclination
97.2848°
Eccentricity
0.0000968
Mean motion
15.33461224 rev/d
Perigee alt
464.8 km
Apogee alt
466.2 km
Semi-major
6,843.6 km
B*
4.7754e-4
RAAN
328.3866°
Arg perigee
89.1544°
Mean anomaly
270.9809°
Rev number
5,840

§ Raw data

STARLINK-350551 65524U 25200E   26261.92558154  .00015381  00000+0  47754-3 0  99942 65524  97.2848 328.3866 0000968  89.1544 270.9809 15.33461224 58405

JSON: /api/v1/satellites/65524 · /tle

For live sub-satellite position, see the globe view (requires WebGL).

§ Visibility from observer

Set your observer location to see the next 7 days of passes ≥ 10°. The values pass through the URL so the page stays shareable.

No JS? Fill the form by hand. The geolocation button needs JavaScript.